Location ID,Date/Time,Temperature ( F ),Temperature ( C )
JUL7,13/Jul/2000 00:59:59,86.0,30.0
JUL7,13/Jul/2000 01:59:59,86.0,30.0
JUL7,13/Jul/2000 02:59:59,86.0,30.0
JUL7,13/Jul/2000 03:59:59,85.1,29.5
JUL7,13/Jul/2000 04:59:59,85.1,29.5
JUL7,13/Jul/2000 05:59:59,85.1,29.5
JUL7,13/Jul/2000 06:59:59,85.1,29.5
JUL7,13/Jul/2000 07:59:59,85.1,29.5
JUL7,13/Jul/2000 08:59:59,85.1,29.5
JUL7,13/Jul/2000 09:59:59,85.1,29.5
JUL7,13/Jul/2000 10:59:59,85.1,29.5
JUL7,13/Jul/2000 11:59:59,85.1,29.5
JUL7,13/Jul/2000 12:59:59,85.1,29.5
JUL7,13/Jul/2000 13:59:59,85.1,29.5
JUL7,13/Jul/2000 14:59:59,84.2,29.0
JUL7,13/Jul/2000 15:59:59,84.2,29.0
JUL7,13/Jul/2000 16:59:59,84.2,29.0
JUL7,13/Jul/2000 17:59:59,84.2,29.0
JUL7,13/Jul/2000 18:59:59,84.2,29.0
JUL7,13/Jul/2000 19:59:59,84.2,29.0
JUL7,13/Jul/2000 20:59:59,84.2,29.0
JUL7,13/Jul/2000 21:59:59,84.2,29.0
JUL7,13/Jul/2000 22:59:59,84.2,29.0
JUL7,13/Jul/2000 23:59:59,84.2,29.0
JUL7,14/Jul/2000 00:59:59,84.2,29.0
JUL7,14/Jul/2000 01:59:59,84.2,29.0
JUL7,14/Jul/2000 02:59:59,84.2,29.0
JUL7,14/Jul/2000 03:59:59,84.2,29.0
JUL7,14/Jul/2000 04:59:59,84.2,29.0
JUL7,14/Jul/2000 05:59:59,84.2,29.0
JUL7,14/Jul/2000 06:59:59,84.2,29.0
JUL7,14/Jul/2000 07:59:59,84.2,29.0
JUL7,14/Jul/2000 08:59:59,84.2,29.0
JUL7,14/Jul/2000 09:59:59,84.2,29.0
JUL7,14/Jul/2000 10:59:59,84.2,29.0
JUL7,14/Jul/2000 11:59:59,84.2,29.0
JUL7,14/Jul/2000 12:59:59,84.2,29.0
JUL7,14/Jul/2000 13:59:59,84.2,29.0
JUL7,14/Jul/2000 14:59:59,84.2,29.0
JUL7,14/Jul/2000 15:59:59,85.1,29.5
JUL7,14/Jul/2000 16:59:59,85.1,29.5
JUL7,14/Jul/2000 17:59:59,85.1,29.5
JUL7,14/Jul/2000 18:59:59,85.1,29.5
JUL7,14/Jul/2000 19:59:59,85.1,29.5
JUL7,14/Jul/2000 20:59:59,84.2,29.0
JUL7,14/Jul/2000 21:59:59,84.2,29.0
JUL7,14/Jul/2000 22:59:59,84.2,29.0
JUL7,14/Jul/2000 23:59:59,84.2,29.0
JUL7,15/Jul/2000 00:59:59,84.2,29.0
JUL7,15/Jul/2000 01:59:59,84.2,29.0
JUL7,15/Jul/2000 02:59:59,84.2,29.0
JUL7,15/Jul/2000 03:59:59,84.2,29.0
JUL7,15/Jul/2000 04:59:59,84.2,29.0
JUL7,15/Jul/2000 05:59:59,84.2,29.0
JUL7,15/Jul/2000 06:59:59,84.2,29.0
JUL7,15/Jul/2000 07:59:59,84.2,29.0
JUL7,15/Jul/2000 08:59:59,84.2,29.0
JUL7,15/Jul/2000 09:59:59,84.2,29.0
JUL7,15/Jul/2000 10:59:59,84.2,29.0
JUL7,15/Jul/2000 11:59:59,84.2,29.0
JUL7,15/Jul/2000 12:59:59,84.2,29.0
JUL7,15/Jul/2000 13:59:59,84.2,29.0
JUL7,15/Jul/2000 14:59:59,84.2,29.0
JUL7,15/Jul/2000 15:59:59,85.1,29.5
JUL7,15/Jul/2000 16:59:59,85.1,29.5
JUL7,15/Jul/2000 17:59:59,85.1,29.5
JUL7,15/Jul/2000 18:59:59,84.2,29.0
JUL7,15/Jul/2000 19:59:59,84.2,29.0
JUL7,15/Jul/2000 20:59:59,83.3,28.5
JUL7,15/Jul/2000 21:59:59,83.3,28.5
JUL7,15/Jul/2000 22:59:59,83.3,28.5
JUL7,15/Jul/2000 23:59:59,83.3,28.5
JUL7,16/Jul/2000 00:59:59,82.4,28.0
JUL7,16/Jul/2000 01:59:59,83.3,28.5
JUL7,16/Jul/2000 02:59:59,83.3,28.5
JUL7,16/Jul/2000 03:59:59,83.3,28.5
JUL7,16/Jul/2000 04:59:59,83.3,28.5
JUL7,16/Jul/2000 05:59:59,83.3,28.5
JUL7,16/Jul/2000 06:59:59,83.3,28.5
JUL7,16/Jul/2000 07:59:59,83.3,28.5
JUL7,16/Jul/2000 08:59:59,83.3,28.5
JUL7,16/Jul/2000 09:59:59,83.3,28.5
JUL7,16/Jul/2000 10:59:59,84.2,29.0
JUL7,16/Jul/2000 11:59:59,83.3,28.5
JUL7,16/Jul/2000 12:59:59,83.3,28.5
JUL7,16/Jul/2000 13:59:59,83.3,28.5
JUL7,16/Jul/2000 14:59:59,83.3,28.5
JUL7,16/Jul/2000 15:59:59,82.4,28.0
JUL7,16/Jul/2000 16:59:59,82.4,28.0
JUL7,16/Jul/2000 17:59:59,82.4,28.0
JUL7,16/Jul/2000 18:59:59,82.4,28.0
JUL7,16/Jul/2000 19:59:59,83.3,28.5
JUL7,16/Jul/2000 20:59:59,83.3,28.5
JUL7,16/Jul/2000 21:59:59,83.3,28.5
JUL7,16/Jul/2000 22:59:59,83.3,28.5
JUL7,16/Jul/2000 23:59:59,83.3,28.5
JUL7,17/Jul/2000 00:59:59,83.3,28.5
JUL7,17/Jul/2000 01:59:59,82.4,28.0
JUL7,17/Jul/2000 02:59:59,81.5,27.5
JUL7,17/Jul/2000 03:59:59,81.5,27.5
JUL7,17/Jul/2000 04:59:59,81.5,27.5
JUL7,17/Jul/2000 05:59:59,81.5,27.5
JUL7,17/Jul/2000 06:59:59,82.4,28.0
JUL7,17/Jul/2000 07:59:59,82.4,28.0
JUL7,17/Jul/2000 08:59:59,82.4,28.0
JUL7,17/Jul/2000 09:59:59,82.4,28.0
JUL7,17/Jul/2000 10:59:59,82.4,28.0
JUL7,17/Jul/2000 11:59:59,82.4,28.0
JUL7,17/Jul/2000 12:59:59,82.4,28.0
JUL7,17/Jul/2000 13:59:59,82.4,28.0
JUL7,17/Jul/2000 14:59:59,83.3,28.5
JUL7,17/Jul/2000 15:59:59,83.3,28.5
JUL7,17/Jul/2000 16:59:59,83.3,28.5
JUL7,17/Jul/2000 17:59:59,83.3,28.5
JUL7,17/Jul/2000 18:59:59,83.3,28.5
JUL7,17/Jul/2000 19:59:59,83.3,28.5
JUL7,17/Jul/2000 20:59:59,83.3,28.5
JUL7,17/Jul/2000 21:59:59,83.3,28.5
JUL7,17/Jul/2000 22:59:59,82.4,28.0
JUL7,17/Jul/2000 23:59:59,81.5,27.5
JUL7,18/Jul/2000 00:59:59,81.5,27.5
JUL7,18/Jul/2000 01:59:59,82.4,28.0
JUL7,18/Jul/2000 02:59:59,81.5,27.5
JUL7,18/Jul/2000 03:59:59,81.5,27.5
JUL7,18/Jul/2000 04:59:59,81.5,27.5
JUL7,18/Jul/2000 05:59:59,81.5,27.5
JUL7,18/Jul/2000 06:59:59,81.5,27.5
JUL7,18/Jul/2000 07:59:59,82.4,28.0
JUL7,18/Jul/2000 08:59:59,82.4,28.0
JUL7,18/Jul/2000 09:59:59,82.4,28.0
JUL7,18/Jul/2000 10:59:59,82.4,28.0
JUL7,18/Jul/2000 11:59:59,82.4,28.0
JUL7,18/Jul/2000 12:59:59,82.4,28.0
JUL7,18/Jul/2000 13:59:59,82.4,28.0
JUL7,18/Jul/2000 14:59:59,82.4,28.0
JUL7,18/Jul/2000 15:59:59,82.4,28.0
JUL7,18/Jul/2000 16:59:59,82.4,28.0
JUL7,18/Jul/2000 17:59:59,83.3,28.5
JUL7,18/Jul/2000 18:59:59,83.3,28.5
JUL7,18/Jul/2000 19:59:59,82.4,28.0
JUL7,18/Jul/2000 20:59:59,81.5,27.5
JUL7,18/Jul/2000 21:59:59,81.5,27.5
JUL7,18/Jul/2000 22:59:59,81.5,27.5
JUL7,18/Jul/2000 23:59:59,81.5,27.5
JUL7,19/Jul/2000 00:59:59,81.5,27.5
JUL7,19/Jul/2000 01:59:59,81.5,27.5
JUL7,19/Jul/2000 02:59:59,81.5,27.5
JUL7,19/Jul/2000 03:59:59,81.5,27.5
JUL7,19/Jul/2000 04:59:59,81.5,27.5
JUL7,19/Jul/2000 05:59:59,81.5,27.5
JUL7,19/Jul/2000 06:59:59,81.5,27.5
JUL7,19/Jul/2000 07:59:59,81.5,27.5
JUL7,19/Jul/2000 08:59:59,81.5,27.5
JUL7,19/Jul/2000 09:59:59,81.5,27.5
JUL7,19/Jul/2000 10:59:59,81.5,27.5
JUL7,19/Jul/2000 11:59:59,82.4,28.0
JUL7,19/Jul/2000 12:59:59,82.4,28.0
JUL7,19/Jul/2000 13:59:59,82.4,28.0
JUL7,19/Jul/2000 14:59:59,82.4,28.0
JUL7,19/Jul/2000 15:59:59,82.4,28.0
JUL7,19/Jul/2000 16:59:59,83.3,28.5
JUL7,19/Jul/2000 17:59:59,83.3,28.5
JUL7,19/Jul/2000 18:59:59,82.4,28.0
JUL7,19/Jul/2000 19:59:59,82.4,28.0
JUL7,19/Jul/2000 20:59:59,81.5,27.5
JUL7,19/Jul/2000 21:59:59,80.6,27.0
JUL7,19/Jul/2000 22:59:59,81.5,27.5
JUL7,19/Jul/2000 23:59:59,81.5,27.5
JUL7,20/Jul/2000 00:59:59,81.5,27.5
JUL7,20/Jul/2000 01:59:59,81.5,27.5
JUL7,20/Jul/2000 02:59:59,81.5,27.5
JUL7,20/Jul/2000 03:59:59,81.5,27.5
JUL7,20/Jul/2000 04:59:59,81.5,27.5
JUL7,20/Jul/2000 05:59:59,81.5,27.5
JUL7,20/Jul/2000 06:59:59,80.6,27.0
JUL7,20/Jul/2000 07:59:59,81.5,27.5
JUL7,20/Jul/2000 08:59:59,81.5,27.5
JUL7,20/Jul/2000 09:59:59,81.5,27.5
JUL7,20/Jul/2000 10:59:59,81.5,27.5
JUL7,20/Jul/2000 11:59:59,81.5,27.5
JUL7,20/Jul/2000 12:59:59,81.5,27.5
JUL7,20/Jul/2000 13:59:59,81.5,27.5
JUL7,20/Jul/2000 14:59:59,82.4,28.0
JUL7,20/Jul/2000 15:59:59,82.4,28.0
JUL7,20/Jul/2000 16:59:59,83.3,28.5
JUL7,20/Jul/2000 17:59:59,83.3,28.5
JUL7,20/Jul/2000 18:59:59,83.3,28.5
JUL7,20/Jul/2000 19:59:59,83.3,28.5
JUL7,20/Jul/2000 20:59:59,83.3,28.5
JUL7,20/Jul/2000 21:59:59,82.4,28.0
JUL7,20/Jul/2000 22:59:59,82.4,28.0
JUL7,20/Jul/2000 23:59:59,82.4,28.0
JUL7,21/Jul/2000 00:59:59,82.4,28.0
JUL7,21/Jul/2000 01:59:59,83.3,28.5
JUL7,21/Jul/2000 02:59:59,83.3,28.5
JUL7,21/Jul/2000 03:59:59,83.3,28.5
JUL7,21/Jul/2000 04:59:59,83.3,28.5
JUL7,21/Jul/2000 05:59:59,83.3,28.5
JUL7,21/Jul/2000 06:59:59,82.4,28.0
JUL7,21/Jul/2000 07:59:59,83.3,28.5
JUL7,21/Jul/2000 08:59:59,82.4,28.0
JUL7,21/Jul/2000 09:59:59,83.3,28.5
JUL7,21/Jul/2000 10:59:59,83.3,28.5
JUL7,21/Jul/2000 11:59:59,83.3,28.5
JUL7,21/Jul/2000 12:59:59,83.3,28.5
JUL7,21/Jul/2000 13:59:59,83.3,28.5
JUL7,21/Jul/2000 14:59:59,83.3,28.5
JUL7,21/Jul/2000 15:59:59,83.3,28.5
JUL7,21/Jul/2000 16:59:59,83.3,28.5
JUL7,21/Jul/2000 17:59:59,84.2,29.0
JUL7,21/Jul/2000 18:59:59,84.2,29.0
JUL7,21/Jul/2000 19:59:59,84.2,29.0
JUL7,21/Jul/2000 20:59:59,84.2,29.0
JUL7,21/Jul/2000 21:59:59,84.2,29.0
JUL7,21/Jul/2000 22:59:59,84.2,29.0
JUL7,21/Jul/2000 23:59:59,84.2,29.0
JUL7,22/Jul/2000 00:59:59,84.2,29.0
JUL7,22/Jul/2000 01:59:59,84.2,29.0
JUL7,22/Jul/2000 02:59:59,84.2,29.0
JUL7,22/Jul/2000 03:59:59,84.2,29.0
JUL7,22/Jul/2000 04:59:59,84.2,29.0
JUL7,22/Jul/2000 05:59:59,84.2,29.0
JUL7,22/Jul/2000 06:59:59,84.2,29.0
JUL7,22/Jul/2000 07:59:59,84.2,29.0
JUL7,22/Jul/2000 08:59:59,84.2,29.0
JUL7,22/Jul/2000 09:59:59,84.2,29.0
JUL7,22/Jul/2000 10:59:59,84.2,29.0
JUL7,22/Jul/2000 11:59:59,85.1,29.5
JUL7,22/Jul/2000 12:59:59,85.1,29.5
JUL7,22/Jul/2000 13:59:59,85.1,29.5
JUL7,22/Jul/2000 14:59:59,85.1,29.5
JUL7,22/Jul/2000 15:59:59,85.1,29.5
JUL7,22/Jul/2000 16:59:59,85.1,29.5
JUL7,22/Jul/2000 17:59:59,86.0,30.0
JUL7,22/Jul/2000 18:59:59,86.0,30.0
JUL7,22/Jul/2000 19:59:59,86.0,30.0
JUL7,22/Jul/2000 20:59:59,86.0,30.0
JUL7,22/Jul/2000 21:59:59,86.0,30.0
JUL7,22/Jul/2000 22:59:59,85.1,29.5
JUL7,22/Jul/2000 23:59:59,85.1,29.5
JUL7,23/Jul/2000 00:59:59,85.1,29.5
JUL7,23/Jul/2000 01:59:59,85.1,29.5
JUL7,23/Jul/2000 02:59:59,84.2,29.0
JUL7,23/Jul/2000 03:59:59,84.2,29.0
JUL7,23/Jul/2000 04:59:59,84.2,29.0
JUL7,23/Jul/2000 05:59:59,85.1,29.5
JUL7,23/Jul/2000 06:59:59,85.1,29.5
JUL7,23/Jul/2000 07:59:59,85.1,29.5
JUL7,23/Jul/2000 08:59:59,85.1,29.5
JUL7,23/Jul/2000 09:59:59,85.1,29.5
JUL7,23/Jul/2000 10:59:59,85.1,29.5
JUL7,23/Jul/2000 11:59:59,85.1,29.5
JUL7,23/Jul/2000 12:59:59,85.1,29.5
JUL7,23/Jul/2000 13:59:59,85.1,29.5
JUL7,23/Jul/2000 14:59:59,85.1,29.5
JUL7,23/Jul/2000 15:59:59,85.1,29.5
JUL7,23/Jul/2000 16:59:59,85.1,29.5
JUL7,23/Jul/2000 17:59:59,85.1,29.5
JUL7,23/Jul/2000 18:59:59,85.1,29.5
JUL7,23/Jul/2000 19:59:59,85.1,29.5
JUL7,23/Jul/2000 20:59:59,85.1,29.5
JUL7,23/Jul/2000 21:59:59,85.1,29.5
JUL7,23/Jul/2000 22:59:59,84.2,29.0
JUL7,23/Jul/2000 23:59:59,84.2,29.0
JUL7,24/Jul/2000 00:59:59,84.2,29.0
JUL7,24/Jul/2000 01:59:59,85.1,29.5
JUL7,24/Jul/2000 02:59:59,85.1,29.5
JUL7,24/Jul/2000 03:59:59,85.1,29.5
JUL7,24/Jul/2000 04:59:59,85.1,29.5
JUL7,24/Jul/2000 05:59:59,85.1,29.5
JUL7,24/Jul/2000 06:59:59,85.1,29.5
JUL7,24/Jul/2000 07:59:59,85.1,29.5
JUL7,24/Jul/2000 08:59:59,85.1,29.5
JUL7,24/Jul/2000 09:59:59,85.1,29.5
JUL7,24/Jul/2000 10:59:59,85.1,29.5
JUL7,24/Jul/2000 11:59:59,85.1,29.5
JUL7,24/Jul/2000 12:59:59,85.1,29.5
JUL7,24/Jul/2000 13:59:59,85.1,29.5
JUL7,24/Jul/2000 14:59:59,85.1,29.5
JUL7,24/Jul/2000 15:59:59,85.1,29.5
JUL7,24/Jul/2000 16:59:59,85.1,29.5
JUL7,24/Jul/2000 17:59:59,85.1,29.5
JUL7,24/Jul/2000 18:59:59,86.0,30.0
JUL7,24/Jul/2000 19:59:59,85.1,29.5
JUL7,24/Jul/2000 20:59:59,85.1,29.5
JUL7,24/Jul/2000 21:59:59,85.1,29.5
JUL7,24/Jul/2000 22:59:59,85.1,29.5
JUL7,24/Jul/2000 23:59:59,85.1,29.5
JUL7,25/Jul/2000 00:59:59,85.1,29.5
JUL7,25/Jul/2000 01:59:59,85.1,29.5
JUL7,25/Jul/2000 02:59:59,85.1,29.5
JUL7,25/Jul/2000 03:59:59,85.1,29.5
JUL7,25/Jul/2000 04:59:59,85.1,29.5
JUL7,25/Jul/2000 05:59:59,85.1,29.5
JUL7,25/Jul/2000 06:59:59,86.0,30.0
JUL7,25/Jul/2000 07:59:59,85.1,29.5
JUL7,25/Jul/2000 08:59:59,86.0,30.0
JUL7,25/Jul/2000 09:59:59,86.0,30.0
JUL7,25/Jul/2000 10:59:59,86.0,30.0
JUL7,25/Jul/2000 11:59:59,86.0,30.0
JUL7,25/Jul/2000 12:59:59,86.0,30.0
JUL7,25/Jul/2000 13:59:59,86.0,30.0
JUL7,25/Jul/2000 14:59:59,86.0,30.0
JUL7,25/Jul/2000 15:59:59,86.0,30.0
JUL7,25/Jul/2000 16:59:59,86.0,30.0
JUL7,25/Jul/2000 17:59:59,86.0,30.0
JUL7,25/Jul/2000 18:59:59,86.0,30.0
JUL7,25/Jul/2000 19:59:59,86.0,30.0
JUL7,25/Jul/2000 20:59:59,86.9,30.5
JUL7,25/Jul/2000 21:59:59,86.0,30.0
JUL7,25/Jul/2000 22:59:59,86.0,30.0
JUL7,25/Jul/2000 23:59:59,86.0,30.0
JUL7,26/Jul/2000 00:59:59,86.0,30.0
JUL7,26/Jul/2000 01:59:59,86.0,30.0
JUL7,26/Jul/2000 02:59:59,86.0,30.0
JUL7,26/Jul/2000 03:59:59,86.0,30.0
JUL7,26/Jul/2000 04:59:59,86.0,30.0
JUL7,26/Jul/2000 05:59:59,86.0,30.0
JUL7,26/Jul/2000 06:59:59,86.0,30.0
JUL7,26/Jul/2000 07:59:59,86.0,30.0
JUL7,26/Jul/2000 08:59:59,86.0,30.0
JUL7,26/Jul/2000 09:59:59,86.0,30.0
JUL7,26/Jul/2000 10:59:59,86.0,30.0
JUL7,26/Jul/2000 11:59:59,86.0,30.0
JUL7,26/Jul/2000 12:59:59,86.0,30.0
JUL7,26/Jul/2000 13:59:59,86.0,30.0
JUL7,26/Jul/2000 14:59:59,86.0,30.0
JUL7,26/Jul/2000 15:59:59,86.0,30.0
JUL7,26/Jul/2000 16:59:59,86.0,30.0
JUL7,26/Jul/2000 17:59:59,86.0,30.0
JUL7,26/Jul/2000 18:59:59,86.0,30.0
JUL7,26/Jul/2000 19:59:59,86.0,30.0
JUL7,26/Jul/2000 20:59:59,86.0,30.0
JUL7,26/Jul/2000 21:59:59,86.0,30.0
JUL7,26/Jul/2000 22:59:59,86.0,30.0
JUL7,26/Jul/2000 23:59:59,86.0,30.0
JUL7,27/Jul/2000 00:59:59,86.0,30.0
JUL7,27/Jul/2000 01:59:59,86.0,30.0
JUL7,27/Jul/2000 02:59:59,85.1,29.5
JUL7,27/Jul/2000 03:59:59,85.1,29.5
JUL7,27/Jul/2000 04:59:59,85.1,29.5
JUL7,27/Jul/2000 05:59:59,85.1,29.5
JUL7,27/Jul/2000 06:59:59,85.1,29.5
JUL7,27/Jul/2000 07:59:59,86.0,30.0
JUL7,27/Jul/2000 08:59:59,86.0,30.0
JUL7,27/Jul/2000 09:59:59,86.0,30.0
JUL7,27/Jul/2000 10:59:59,86.0,30.0
JUL7,27/Jul/2000 11:59:59,86.0,30.0
JUL7,27/Jul/2000 12:59:59,86.0,30.0
JUL7,27/Jul/2000 13:59:59,86.0,30.0
JUL7,27/Jul/2000 14:59:59,85.1,29.5
JUL7,27/Jul/2000 15:59:59,85.1,29.5
JUL7,27/Jul/2000 16:59:59,85.1,29.5
JUL7,27/Jul/2000 17:59:59,85.1,29.5
JUL7,27/Jul/2000 18:59:59,85.1,29.5
JUL7,27/Jul/2000 19:59:59,85.1,29.5
JUL7,27/Jul/2000 20:59:59,85.1,29.5
JUL7,27/Jul/2000 21:59:59,85.1,29.5
JUL7,27/Jul/2000 22:59:59,84.2,29.0
JUL7,27/Jul/2000 23:59:59,84.2,29.0
JUL7,28/Jul/2000 00:59:59,84.2,29.0
JUL7,28/Jul/2000 01:59:59,84.2,29.0
JUL7,28/Jul/2000 02:59:59,84.2,29.0
JUL7,28/Jul/2000 03:59:59,84.2,29.0
JUL7,28/Jul/2000 04:59:59,83.3,28.5
JUL7,28/Jul/2000 05:59:59,83.3,28.5
JUL7,28/Jul/2000 06:59:59,83.3,28.5
JUL7,28/Jul/2000 07:59:59,83.3,28.5
JUL7,28/Jul/2000 08:59:59,83.3,28.5
JUL7,28/Jul/2000 09:59:59,84.2,29.0
JUL7,28/Jul/2000 10:59:59,84.2,29.0
JUL7,28/Jul/2000 11:59:59,84.2,29.0
JUL7,28/Jul/2000 12:59:59,84.2,29.0
JUL7,28/Jul/2000 13:59:59,84.2,29.0
JUL7,28/Jul/2000 14:59:59,84.2,29.0
JUL7,28/Jul/2000 15:59:59,85.1,29.5
JUL7,28/Jul/2000 16:59:59,84.2,29.0
JUL7,28/Jul/2000 17:59:59,85.1,29.5
JUL7,28/Jul/2000 18:59:59,85.1,29.5
JUL7,28/Jul/2000 19:59:59,85.1,29.5
JUL7,28/Jul/2000 20:59:59,85.1,29.5
JUL7,28/Jul/2000 21:59:59,85.1,29.5
JUL7,28/Jul/2000 22:59:59,85.1,29.5
JUL7,28/Jul/2000 23:59:59,85.1,29.5
JUL7,29/Jul/2000 00:59:59,85.1,29.5
JUL7,29/Jul/2000 01:59:59,85.1,29.5
JUL7,29/Jul/2000 02:59:59,85.1,29.5
JUL7,29/Jul/2000 03:59:59,85.1,29.5
JUL7,29/Jul/2000 04:59:59,85.1,29.5
JUL7,29/Jul/2000 05:59:59,85.1,29.5
JUL7,29/Jul/2000 06:59:59,85.1,29.5
JUL7,29/Jul/2000 07:59:59,85.1,29.5
JUL7,29/Jul/2000 08:59:59,85.1,29.5
JUL7,29/Jul/2000 09:59:59,85.1,29.5
JUL7,29/Jul/2000 10:59:59,85.1,29.5
JUL7,29/Jul/2000 11:59:59,85.1,29.5
JUL7,29/Jul/2000 12:59:59,85.1,29.5
JUL7,29/Jul/2000 13:59:59,85.1,29.5
JUL7,29/Jul/2000 14:59:59,85.1,29.5
JUL7,29/Jul/2000 15:59:59,85.1,29.5
JUL7,29/Jul/2000 16:59:59,85.1,29.5
JUL7,29/Jul/2000 17:59:59,86.0,30.0
JUL7,29/Jul/2000 18:59:59,85.1,29.5
JUL7,29/Jul/2000 19:59:59,85.1,29.5
JUL7,29/Jul/2000 20:59:59,85.1,29.5
JUL7,29/Jul/2000 21:59:59,85.1,29.5
JUL7,29/Jul/2000 22:59:59,85.1,29.5
JUL7,29/Jul/2000 23:59:59,85.1,29.5
JUL7,30/Jul/2000 00:59:59,85.1,29.5
JUL7,30/Jul/2000 01:59:59,86.0,30.0
JUL7,30/Jul/2000 02:59:59,85.1,29.5
JUL7,30/Jul/2000 03:59:59,85.1,29.5
JUL7,30/Jul/2000 04:59:59,84.2,29.0
JUL7,30/Jul/2000 05:59:59,83.3,28.5
JUL7,30/Jul/2000 06:59:59,82.4,28.0
JUL7,30/Jul/2000 07:59:59,82.4,28.0
JUL7,30/Jul/2000 08:59:59,82.4,28.0
JUL7,30/Jul/2000 09:59:59,82.4,28.0
JUL7,30/Jul/2000 10:59:59,82.4,28.0
JUL7,30/Jul/2000 11:59:59,83.3,28.5
JUL7,30/Jul/2000 12:59:59,83.3,28.5
JUL7,30/Jul/2000 13:59:59,84.2,29.0
JUL7,30/Jul/2000 14:59:59,84.2,29.0
JUL7,30/Jul/2000 15:59:59,85.1,29.5
JUL7,30/Jul/2000 16:59:59,85.1,29.5
JUL7,30/Jul/2000 17:59:59,83.3,28.5
JUL7,30/Jul/2000 18:59:59,82.4,28.0
JUL7,30/Jul/2000 19:59:59,82.4,28.0
JUL7,30/Jul/2000 20:59:59,82.4,28.0
JUL7,30/Jul/2000 21:59:59,82.4,28.0
JUL7,30/Jul/2000 22:59:59,82.4,28.0
JUL7,30/Jul/2000 23:59:59,82.4,28.0
JUL7,31/Jul/2000 00:59:59,82.4,28.0
JUL7,31/Jul/2000 01:59:59,82.4,28.0
JUL7,31/Jul/2000 02:59:59,82.4,28.0
JUL7,31/Jul/2000 03:59:59,83.3,28.5
JUL7,31/Jul/2000 04:59:59,83.3,28.5
JUL7,31/Jul/2000 05:59:59,83.3,28.5
JUL7,31/Jul/2000 06:59:59,83.3,28.5
JUL7,31/Jul/2000 07:59:59,83.3,28.5
JUL7,31/Jul/2000 08:59:59,83.3,28.5
JUL7,31/Jul/2000 09:59:59,84.2,29.0
JUL7,31/Jul/2000 10:59:59,84.2,29.0
JUL7,31/Jul/2000 11:59:59,84.2,29.0
JUL7,31/Jul/2000 12:59:59,84.2,29.0
JUL7,31/Jul/2000 13:59:59,84.2,29.0
JUL7,31/Jul/2000 14:59:59,84.2,29.0
JUL7,31/Jul/2000 15:59:59,84.2,29.0
JUL7,31/Jul/2000 16:59:59,84.2,29.0
JUL7,31/Jul/2000 17:59:59,85.1,29.5
JUL7,31/Jul/2000 18:59:59,85.1,29.5
JUL7,31/Jul/2000 19:59:59,85.1,29.5
JUL7,31/Jul/2000 20:59:59,85.1,29.5
JUL7,31/Jul/2000 21:59:59,85.1,29.5
JUL7,31/Jul/2000 22:59:59,83.3,28.5
JUL7,31/Jul/2000 23:59:59,84.2,29.0
JUL7,01/Aug/2000 00:59:59,83.3,28.5
JUL7,01/Aug/2000 01:59:59,83.3,28.5
JUL7,01/Aug/2000 02:59:59,83.3,28.5
JUL7,01/Aug/2000 03:59:59,83.3,28.5
JUL7,01/Aug/2000 04:59:59,83.3,28.5
JUL7,01/Aug/2000 05:59:59,83.3,28.5
JUL7,01/Aug/2000 06:59:59,84.2,29.0
JUL7,01/Aug/2000 07:59:59,83.3,28.5
JUL7,01/Aug/2000 08:59:59,83.3,28.5
JUL7,01/Aug/2000 09:59:59,83.3,28.5
JUL7,01/Aug/2000 10:59:59,82.4,28.0
JUL7,01/Aug/2000 11:59:59,82.4,28.0
JUL7,01/Aug/2000 12:59:59,82.4,28.0
JUL7,01/Aug/2000 13:59:59,83.3,28.5
JUL7,01/Aug/2000 14:59:59,83.3,28.5
JUL7,01/Aug/2000 15:59:59,83.3,28.5
JUL7,01/Aug/2000 16:59:59,83.3,28.5
JUL7,01/Aug/2000 17:59:59,83.3,28.5
JUL7,01/Aug/2000 18:59:59,83.3,28.5
JUL7,01/Aug/2000 19:59:59,82.4,28.0
JUL7,01/Aug/2000 20:59:59,82.4,28.0
JUL7,01/Aug/2000 21:59:59,82.4,28.0
JUL7,01/Aug/2000 22:59:59,83.3,28.5
JUL7,01/Aug/2000 23:59:59,83.3,28.5
JUL7,02/Aug/2000 00:59:59,83.3,28.5
JUL7,02/Aug/2000 01:59:59,83.3,28.5
JUL7,02/Aug/2000 02:59:59,83.3,28.5
JUL7,02/Aug/2000 03:59:59,83.3,28.5
JUL7,02/Aug/2000 04:59:59,83.3,28.5
JUL7,02/Aug/2000 05:59:59,83.3,28.5
JUL7,02/Aug/2000 06:59:59,82.4,28.0
JUL7,02/Aug/2000 07:59:59,83.3,28.5
JUL7,02/Aug/2000 08:59:59,83.3,28.5
JUL7,02/Aug/2000 09:59:59,83.3,28.5
JUL7,02/Aug/2000 10:59:59,83.3,28.5
JUL7,02/Aug/2000 11:59:59,84.2,29.0
JUL7,02/Aug/2000 12:59:59,84.2,29.0
JUL7,02/Aug/2000 13:59:59,85.1,29.5
JUL7,02/Aug/2000 14:59:59,85.1,29.5
JUL7,02/Aug/2000 15:59:59,82.4,28.0
JUL7,02/Aug/2000 16:59:59,81.5,27.5
JUL7,02/Aug/2000 17:59:59,82.4,28.0
JUL7,02/Aug/2000 18:59:59,82.4,28.0
JUL7,02/Aug/2000 19:59:59,82.4,28.0
JUL7,02/Aug/2000 20:59:59,82.4,28.0
JUL7,02/Aug/2000 21:59:59,84.2,29.0
JUL7,02/Aug/2000 22:59:59,84.2,29.0
JUL7,02/Aug/2000 23:59:59,83.3,28.5
JUL7,03/Aug/2000 00:59:59,84.2,29.0
JUL7,03/Aug/2000 01:59:59,84.2,29.0
JUL7,03/Aug/2000 02:59:59,83.3,28.5
JUL7,03/Aug/2000 03:59:59,83.3,28.5
JUL7,03/Aug/2000 04:59:59,83.3,28.5
JUL7,03/Aug/2000 05:59:59,84.2,29.0
JUL7,03/Aug/2000 06:59:59,83.3,28.5
JUL7,03/Aug/2000 07:59:59,83.3,28.5
JUL7,03/Aug/2000 08:59:59,83.3,28.5
JUL7,03/Aug/2000 09:59:59,84.2,29.0
JUL7,03/Aug/2000 10:59:59,83.3,28.5
JUL7,03/Aug/2000 11:59:59,83.3,28.5
JUL7,03/Aug/2000 12:59:59,81.5,27.5
JUL7,03/Aug/2000 13:59:59,81.5,27.5
JUL7,03/Aug/2000 14:59:59,82.4,28.0
JUL7,03/Aug/2000 15:59:59,81.5,27.5
JUL7,03/Aug/2000 16:59:59,82.4,28.0
JUL7,03/Aug/2000 17:59:59,82.4,28.0
JUL7,03/Aug/2000 18:59:59,82.4,28.0
JUL7,03/Aug/2000 19:59:59,82.4,28.0
JUL7,03/Aug/2000 20:59:59,82.4,28.0
JUL7,03/Aug/2000 21:59:59,81.5,27.5
JUL7,03/Aug/2000 22:59:59,82.4,28.0
JUL7,03/Aug/2000 23:59:59,83.3,28.5
JUL7,04/Aug/2000 00:59:59,82.4,28.0
JUL7,04/Aug/2000 01:59:59,82.4,28.0
JUL7,04/Aug/2000 02:59:59,82.4,28.0
JUL7,04/Aug/2000 03:59:59,82.4,28.0
JUL7,04/Aug/2000 04:59:59,82.4,28.0
JUL7,04/Aug/2000 05:59:59,82.4,28.0
JUL7,04/Aug/2000 06:59:59,83.3,28.5
JUL7,04/Aug/2000 07:59:59,83.3,28.5
JUL7,04/Aug/2000 08:59:59,83.3,28.5
JUL7,04/Aug/2000 09:59:59,83.3,28.5
JUL7,04/Aug/2000 10:59:59,82.4,28.0
JUL7,04/Aug/2000 11:59:59,82.4,28.0
JUL7,04/Aug/2000 12:59:59,83.3,28.5
JUL7,04/Aug/2000 13:59:59,83.3,28.5
JUL7,04/Aug/2000 14:59:59,83.3,28.5
JUL7,04/Aug/2000 15:59:59,83.3,28.5
JUL7,04/Aug/2000 16:59:59,83.3,28.5
JUL7,04/Aug/2000 17:59:59,82.4,28.0
JUL7,04/Aug/2000 18:59:59,82.4,28.0
JUL7,04/Aug/2000 19:59:59,82.4,28.0
JUL7,04/Aug/2000 20:59:59,83.3,28.5
JUL7,04/Aug/2000 21:59:59,83.3,28.5
JUL7,04/Aug/2000 22:59:59,83.3,28.5
JUL7,04/Aug/2000 23:59:59,83.3,28.5
JUL7,05/Aug/2000 00:59:59,83.3,28.5
JUL7,05/Aug/2000 01:59:59,83.3,28.5
JUL7,05/Aug/2000 02:59:59,83.3,28.5
JUL7,05/Aug/2000 03:59:59,83.3,28.5
JUL7,05/Aug/2000 04:59:59,83.3,28.5
JUL7,05/Aug/2000 05:59:59,83.3,28.5
JUL7,05/Aug/2000 06:59:59,84.2,29.0
JUL7,05/Aug/2000 07:59:59,84.2,29.0
JUL7,05/Aug/2000 08:59:59,85.1,29.5
JUL7,05/Aug/2000 09:59:59,84.2,29.0
JUL7,05/Aug/2000 10:59:59,84.2,29.0
JUL7,05/Aug/2000 11:59:59,85.1,29.5
JUL7,05/Aug/2000 12:59:59,84.2,29.0
JUL7,05/Aug/2000 13:59:59,85.1,29.5
JUL7,05/Aug/2000 14:59:59,85.1,29.5
JUL7,05/Aug/2000 15:59:59,85.1,29.5
JUL7,05/Aug/2000 16:59:59,85.1,29.5
JUL7,05/Aug/2000 17:59:59,85.1,29.5
JUL7,05/Aug/2000 18:59:59,85.1,29.5
JUL7,05/Aug/2000 19:59:59,85.1,29.5
JUL7,05/Aug/2000 20:59:59,85.1,29.5
JUL7,05/Aug/2000 21:59:59,85.1,29.5
JUL7,05/Aug/2000 22:59:59,85.1,29.5
JUL7,05/Aug/2000 23:59:59,85.1,29.5
JUL7,06/Aug/2000 00:59:59,85.1,29.5
JUL7,06/Aug/2000 01:59:59,85.1,29.5
JUL7,06/Aug/2000 02:59:59,85.1,29.5
JUL7,06/Aug/2000 03:59:59,85.1,29.5
JUL7,06/Aug/2000 04:59:59,85.1,29.5
JUL7,06/Aug/2000 05:59:59,85.1,29.5
JUL7,06/Aug/2000 06:59:59,85.1,29.5
JUL7,06/Aug/2000 07:59:59,85.1,29.5
JUL7,06/Aug/2000 08:59:59,85.1,29.5
JUL7,06/Aug/2000 09:59:59,85.1,29.5
JUL7,06/Aug/2000 10:59:59,85.1,29.5
JUL7,06/Aug/2000 11:59:59,85.1,29.5
JUL7,06/Aug/2000 12:59:59,85.1,29.5
JUL7,06/Aug/2000 13:59:59,85.1,29.5
JUL7,06/Aug/2000 14:59:59,85.1,29.5
JUL7,06/Aug/2000 15:59:59,85.1,29.5
JUL7,06/Aug/2000 16:59:59,85.1,29.5
JUL7,06/Aug/2000 17:59:59,85.1,29.5
JUL7,06/Aug/2000 18:59:59,85.1,29.5
JUL7,06/Aug/2000 19:59:59,85.1,29.5
JUL7,06/Aug/2000 20:59:59,85.1,29.5
JUL7,06/Aug/2000 21:59:59,85.1,29.5
JUL7,06/Aug/2000 22:59:59,85.1,29.5
JUL7,06/Aug/2000 23:59:59,85.1,29.5
JUL7,07/Aug/2000 00:59:59,85.1,29.5
JUL7,07/Aug/2000 01:59:59,85.1,29.5
JUL7,07/Aug/2000 02:59:59,85.1,29.5
JUL7,07/Aug/2000 03:59:59,85.1,29.5
JUL7,07/Aug/2000 04:59:59,85.1,29.5
JUL7,07/Aug/2000 05:59:59,85.1,29.5
JUL7,07/Aug/2000 06:59:59,85.1,29.5
JUL7,07/Aug/2000 07:59:59,85.1,29.5
JUL7,07/Aug/2000 08:59:59,85.1,29.5
JUL7,07/Aug/2000 09:59:59,84.2,29.0
JUL7,07/Aug/2000 10:59:59,85.1,29.5
JUL7,07/Aug/2000 11:59:59,85.1,29.5
JUL7,07/Aug/2000 12:59:59,85.1,29.5
JUL7,07/Aug/2000 13:59:59,85.1,29.5
JUL7,07/Aug/2000 14:59:59,85.1,29.5
JUL7,07/Aug/2000 15:59:59,85.1,29.5
JUL7,07/Aug/2000 16:59:59,85.1,29.5
JUL7,07/Aug/2000 17:59:59,85.1,29.5
JUL7,07/Aug/2000 18:59:59,85.1,29.5
JUL7,07/Aug/2000 19:59:59,85.1,29.5
JUL7,07/Aug/2000 20:59:59,85.1,29.5
JUL7,07/Aug/2000 21:59:59,85.1,29.5
JUL7,07/Aug/2000 22:59:59,85.1,29.5
JUL7,07/Aug/2000 23:59:59,85.1,29.5
JUL7,08/Aug/2000 00:59:59,85.1,29.5
JUL7,08/Aug/2000 01:59:59,85.1,29.5
JUL7,08/Aug/2000 02:59:59,85.1,29.5
JUL7,08/Aug/2000 03:59:59,85.1,29.5
JUL7,08/Aug/2000 04:59:59,85.1,29.5
JUL7,08/Aug/2000 05:59:59,85.1,29.5
JUL7,08/Aug/2000 06:59:59,85.1,29.5
JUL7,08/Aug/2000 07:59:59,85.1,29.5
JUL7,08/Aug/2000 08:59:59,85.1,29.5
JUL7,08/Aug/2000 09:59:59,85.1,29.5
JUL7,08/Aug/2000 10:59:59,85.1,29.5
JUL7,08/Aug/2000 11:59:59,85.1,29.5
JUL7,08/Aug/2000 12:59:59,85.1,29.5
JUL7,08/Aug/2000 13:59:59,85.1,29.5
JUL7,08/Aug/2000 14:59:59,85.1,29.5
JUL7,08/Aug/2000 15:59:59,85.1,29.5
JUL7,08/Aug/2000 16:59:59,85.1,29.5
JUL7,08/Aug/2000 17:59:59,85.1,29.5
JUL7,08/Aug/2000 18:59:59,85.1,29.5
JUL7,08/Aug/2000 19:59:59,85.1,29.5
JUL7,08/Aug/2000 20:59:59,85.1,29.5
JUL7,08/Aug/2000 21:59:59,85.1,29.5
JUL7,08/Aug/2000 22:59:59,85.1,29.5
JUL7,08/Aug/2000 23:59:59,85.1,29.5
JUL7,09/Aug/2000 00:59:59,85.1,29.5
JUL7,09/Aug/2000 01:59:59,85.1,29.5
JUL7,09/Aug/2000 02:59:59,85.1,29.5
JUL7,09/Aug/2000 03:59:59,85.1,29.5
JUL7,09/Aug/2000 04:59:59,85.1,29.5
JUL7,09/Aug/2000 05:59:59,85.1,29.5
JUL7,09/Aug/2000 06:59:59,85.1,29.5
JUL7,09/Aug/2000 07:59:59,85.1,29.5
JUL7,09/Aug/2000 08:59:59,85.1,29.5
JUL7,09/Aug/2000 09:59:59,85.1,29.5
JUL7,09/Aug/2000 10:59:59,85.1,29.5
JUL7,09/Aug/2000 11:59:59,85.1,29.5
JUL7,09/Aug/2000 12:59:59,85.1,29.5
JUL7,09/Aug/2000 13:59:59,85.1,29.5
JUL7,09/Aug/2000 14:59:59,85.1,29.5
JUL7,09/Aug/2000 15:59:59,85.1,29.5
JUL7,09/Aug/2000 16:59:59,85.1,29.5